Regional Weather Roundup
Issued by NWS Bismarck, ND

Home | Current Version | Previous Version | Text Only | Print | Product List | Glossary On
Versions: 1 2 3 4 5 6 7 8 9 10 11 12 13 14 15 16 17 18 19 20 21 22 23 24 25 26 27 28 29 30 31 32 33 34 35 36 37 38 39 40 41 42 43 44 45 46 47 48 49 50
000
ASUS43 KBIS 231910
RWRBIS

NWR BROADCAST TEXT
NATIONAL WEATHER SERVICE BISMARCK ND
200 PM CDT WED AUG 23 2017

NOTE: "FAIR" INDICATES FEW OR NO CLOUDS BELOW 12,000 FEET WITH NO
SIGNIFICANT WEATHER AND/OR OBSTRUCTIONS TO VISIBILITY.


CITY           SKY/WX    TMP DP  RH WIND       PRES   REMARKS
WILLISTON      SUNNY     88  49  25 MISG      29.97F
MINOT          MOSUNNY   85  48  27 SW12      29.96F
MINOT AFB      SUNNY     85  47  26 W10       29.94F
BISMARCK       SUNNY     81  53  37 VRB7      30.01F
DICKINSON      SUNNY     83  48  29 SE7       29.99F
GARRISON         N/A     80  53  39 VRB7      29.99F
HETTINGER ARPT SUNNY     81  52  36 E12       30.02F
JAMESTOWN      SUNNY     78  51  38 S10       30.02F
CARRINGTON     FAIR      79  52  38 S9        30.04F
HAZEN          FAIR      81  52  36 VRB6      30.01F
LINTON         FAIR      81  50  34 SE13      30.02F
MANDAN         FAIR      79  50  36 SE9G15    30.02F
RUGBY          FAIR      81  48  32 S8G16     29.98F
STANLEY        FAIR      82  48  30 SW10      30.01F
TIOGA          FAIR      82  45  26 W10       29.99F
WATFORD CITY   FAIR      86  45  23 VRB7      29.96F
$$

CITY           SKY/WX    TMP DP  RH WIND       PRES   REMARKS
GRAND FORKS    CLOUDY    73  50  44 VRB3      30.05F
GRAND FORKS AF CLOUDY    72  51  46 E6        30.06F
DEVILS LAKE    PTSUNNY   72  47  40 SE9       30.03
FARGO          SUNNY     76  49  38 VRB3      30.05F
CANDO          FAIR      77  50  38 S13       30.03F
CAVALIER       FAIR      68  54  60 E15       30.05F
GRAFTON        FAIR      70  54  56 E10       30.07F
GWINNER        CLEAR     77  57  50 CALM      30.04F
LANGDON        FAIR      72  54  53 SE17      30.04F
ROLLA          FAIR      75  46  35 SW10G18   30.01S
WALHALLA       FAIR      66  66 100 E12G18    30.05S
$$

CITY           SKY/WX    TMP DP  RH WIND       PRES   REMARKS
ABERDEEN       SUNNY     81  53  37 SE14G21   30.02F
MOBRIDGE       SUNNY     82  58  43 E15       29.97F
BUFFALO          N/A     86  48  26 NE7       29.95F
RAPID CITY     SUNNY     85  53  33 NW6       30.01F
GLASGOW        SUNNY     88  41  19 S8        29.95F
SIDNEY         SUNNY     86  50  28 S6        29.96F
WOLF POINT     SUNNY     90  43  19 VRB3      29.94F
GLENDIVE       SUNNY     87  47  24 VRB3      29.98F
MILES CITY     SUNNY     88  43  20 SE8       29.97F
BAKER          SUNNY     87  43  21 MISG      30.02F
$$

CITY           SKY/WX    TMP DP  RH WIND       PRES   REMARKS
BILLINGS       SUNNY     85  39  19 S9        30.01F
GREAT FALLS    SUNNY     88  31  13 W3        30.00F
REGINA         MOSUNNY   81  50  34 NE9       29.98S
ESTEVAN        MOSUNNY   82  50  32 SW5       29.96F
$$





USA.gov is the U.S. government's official web portal to all federal, state and local government web resources and services.